Location: Newark
(39.6172°N, 96.8533°W)
Time: 12:14:19
(UTC+00:00)

Vanguard 2 Rocket - Visible Passes

Search period start: 17 February 2020 00:00
Search period end: 27 February 2020 00:00
Orbit: 554 x 3326 km, 32.9° (Epoch: 16 February)

Date Brightness Start Highest point End Pass type
(mag) Time Alt. Az. Time Alt. Az. Time Alt. Az.
17 Feb 9.3 01:59:20 10° SSW 02:13:24 32° SSE 02:16:39 28° SE visible
17 Feb 9.6 04:15:02 10° WSW 04:22:29 30° SW 04:22:29 30° SW visible
18 Feb 9.7 00:58:51 10° SSW 01:12:30 26° SSE 01:20:44 15° ESE visible
18 Feb 9.0 03:13:06 10° SW 03:26:34 45° S 03:26:34 45° S visible
18 Feb 10.3 05:30:44 10° WSW 05:32:23 14° WSW 05:32:23 14° WSW visible
19 Feb 9.0 02:11:24 10° SW 02:27:23 42° SSE 02:30:37 37° SE visible
19 Feb 9.6 04:28:31 10° WSW 04:36:26 33° WSW 04:36:26 33° WSW visible
20 Feb 9.5 01:10:13 10° SSW 01:26:23 36° SSE 01:34:38 20° ESE visible
20 Feb 8.9 03:26:15 10° WSW 03:40:28 53° SSW 03:40:28 53° SSW visible
20 Feb 10.4 05:44:38 10° W 05:46:17 14° W 05:46:17 14° W visible
21 Feb 10.0 00:09:45 10° SSW 00:25:12 30° SSE 00:37:11 10° E visible
21 Feb 8.8 02:24:09 10° SW 02:41:21 51° SSE 02:44:27 45° SE visible
21 Feb 9.6 04:42:16 10° WSW 04:50:17 33° WSW 04:50:17 33° WSW visible
22 Feb 9.3 01:22:27 10° SW 01:40:14 46° SSE 01:48:25 25° ESE visible
22 Feb 8.8 03:39:46 10° WSW 03:54:15 57° SSW 03:54:15 57° SSW visible
22 Feb 10.4 05:58:37 10° W 06:00:03 13° W 06:00:03 13° W visible
23 Feb 9.9 00:21:22 10° SSW 00:38:54 39° SSE 00:52:08 10° E visible
23 Feb 8.7 02:37:22 10° WSW 02:55:19 60° S 02:58:11 52° SE visible
23 Feb 9.7 04:56:10 10° W 05:03:59 32° WSW 05:03:59 32° WSW visible
24 Feb 9.2 01:35:18 10° SW 01:54:06 55° SSE 02:02:05 29° ESE visible
24 Feb 8.9 03:53:31 10° WSW 04:07:54 58° SW 04:07:54 58° SW visible
24 Feb 10.5 06:12:42 10° W 06:13:43 12° W 06:13:43 12° W visible
25 Feb 9.8 00:33:47 10° SW 00:52:37 49° SSE 01:05:58 12° E visible
25 Feb 8.7 02:50:56 10° WSW 03:09:18 65° S 03:11:46 58° SE visible
25 Feb 9.8 05:10:08 10° W 05:17:35 30° WSW 05:17:35 30° WSW visible
26 Feb 9.1 01:48:36 10° WSW 02:07:59 63° S 02:15:37 33° ESE visible
26 Feb 9.0 04:07:25 10° W 04:21:26 55° SW 04:21:26 55° SW visible
26 Feb 10.6 06:26:55 10° W 06:27:15 11° W 06:27:15 11° W visible
